Printer-friendly version

IAU Minor Planet Center

Minor Planet Center

MPEC 2007-V14 : 2007 UB66

The following Minor Planet Electronic Circular may be linked-to from your own Web pages, but must not otherwise be redistributed electronically.


Read MPEC 2007-V13 Read MPEC 2007-V15


M.P.E.C. 2007-V14                                Issued 2007 Nov. 4, 18:19 UT

     The Minor Planet Electronic Circulars contain information on unusual
         minor planets and routine data on comets.  They are published
   on behalf of Commission 20 of the International Astronomical Union by the
          Minor Planet Center, Smithsonian Astrophysical Observatory,
                          Cambridge, MA 02138, U.S.A.

             Prepared using the Tamkin Foundation Computer Network

                              MPC@CFA.HARVARD.EDU
          URL http://www.cfa.harvard.edu/iau/mpc.html  ISSN 1523-6714

                                   2007 UB66

Observations:
     K07U66B* C2007 10 30.50888 11 08 11.36 +02 11 31.0          20.1 V EV014G96
     K07U66B  C2007 10 30.51237 11 08 11.79 +02 11 20.2          19.6 V EV014G96
     K07U66B  C2007 10 30.51581 11 08 12.22 +02 11 09.2          20.5 V EV014G96
     K07U66B  C2007 11 02.50689 11 14 52.26 -00 26 45.1          20.3 V EV014G96
     K07U66B  C2007 11 02.50744 11 14 52.33 -00 26 47.4          20.8 V EV014G96
     K07U66B  C2007 11 02.51102 11 14 52.80 -00 26 58.8          20.0 V EV014G96
     K07U66B  C2007 11 02.51156 11 14 52.87 -00 27 00.1          20.6 V EV014G96
     K07U66B  C2007 11 02.51536 11 14 53.30 -00 27 11.5          21.4 V EV014G96
     K07U66B  C2007 11 02.51589 11 14 53.44 -00 27 14.0          20.3 V EV014G96
     K07U66B  C2007 11 02.51949 11 14 53.88 -00 27 24.6          20.6 V EV014G96
     K07U66B  C2007 11 02.52006 11 14 53.98 -00 27 26.8          20.9 V EV014G96
     K07U66B  C2007 11 03.50897 11 17 05.31 -01 18 32.3          20.9 V EV014G96
     K07U66B  C2007 11 03.51036 11 17 05.53 -01 18 36.8          21.1 V EV014G96
     K07U66B  C2007 11 03.51182 11 17 05.71 -01 18 41.3          21.2 V EV014G96
     K07U66B  C2007 11 04.51714 11 19 18.76 -02 10 05.4          20.6 V EV014G96
     K07U66B  C2007 11 04.51936 11 19 19.09 -02 10 12.2          19.8 V EV014G96
     K07U66B  C2007 11 04.52162 11 19 19.41 -02 10 19.4          19.8 V EV014G96
     K07U66B  C2007 11 04.52384 11 19 19.63 -02 10 25.6          21.2 V EV014G96

Observer details:
G96 Mt. Lemmon Survey.  Observers R. A. Kowalski, A. Boattini.  Measurers
    E. C. Beshore, A. Boattini, G. J. Garradd, A. R. Gibbs, A. D. Grauer,
    R. E. Hill, R. A. Kowalski, S. M. Larson, R. H. McNaught.  1.5-m reflector
    + CCD.

Orbital elements:
2007 UB66                                                Earth MOID = 0.1356 AU
Epoch 2007 Oct. 27.0 TT = JDT 2454400.5                 MPC
M   6.36170              (2000.0)            P               Q
n   0.32672210     Peri.  148.88784     +0.30125822     -0.81546619
a   2.0877751      Node   279.40658     +0.73903933     +0.52719780
e   0.6220883      Incl.   30.06362     +0.60254822     -0.23890871
P   3.02           H   18.5           G   0.15           U   7
Residuals in seconds of arc
071030 G96  0.4+  0.3-    071102 G96  0.2+  0.1-    071103 G96  0.0   0.3+
071030 G96  0.0   0.1+    071102 G96  0.8-  0.3+    071103 G96  0.1-  0.3+
071030 G96  0.4-  0.2+    071102 G96  0.3+  0.5-    071104 G96  0.3-  0.1-
071102 G96  0.3+  0.3+    071102 G96  0.2-  0.1+    071104 G96  0.3+  0.1-
071102 G96  0.3+  0.2-    071102 G96  0.1+  0.3-    071104 G96  0.7+  0.4-
071102 G96  0.3+  0.5-    071103 G96  0.5-  0.5+    071104 G96  0.4-  0.1+

Ephemeris:
2007 UB66                a,e,i = 2.09, 0.62, 30                  q = 0.7890
Date    TT    R. A. (2000) Decl.     Delta      r     Elong.  Phase     V
2007 10 27    11 00.28   +05 23.2    1.038    0.842    48.9    62.8    20.4
2007 11 06    11 22.56   -03 24.8    1.107    0.904    50.7    58.0    20.6
2007 11 16    11 44.03   -11 17.7    1.171    0.981    53.2    53.8    20.8
2007 11 26    12 04.50   -18 19.0    1.229    1.067    56.3    50.3    21.0
2007 12 06    12 23.77   -24 34.9    1.277    1.159    60.0    47.4    21.1
2007 12 16    12 41.55   -30 11.8    1.316    1.253    64.1    45.0    21.3
2007 12 26    12 57.48   -35 15.4    1.346    1.347    68.7    42.8    21.5
2008 01 05    13 11.12   -39 50.7    1.365    1.441    73.7    40.9    21.6
2008 01 15    13 21.83   -44 01.3    1.375    1.533    79.2    39.1    21.7
2008 01 25    13 28.81   -47 48.4    1.378    1.623    85.1    37.2    21.8
2008 02 04    13 31.08   -51 11.5    1.375    1.711    91.4    35.2    21.8
2008 02 14    13 27.56   -54 05.8    1.369    1.796    98.1    33.0    21.8
2008 02 24    13 17.43   -56 22.6    1.362    1.879   105.0    30.6    21.9
2008 03 05    13 00.73   -57 49.5    1.359    1.959   111.9    28.0    21.9
2008 03 15    12 39.11   -58 13.2    1.364    2.036   118.5    25.4    21.9
2008 03 25    12 16.00   -57 26.4    1.380    2.110   124.4    23.0    21.9
2008 04 04    11 55.23   -55 33.8    1.412    2.182   128.8    20.9    22.0

Gareth V. Williams           (C) Copyright 2007 MPC           M.P.E.C. 2007-V14

Read MPEC 2007-V13 Read MPEC 2007-V15


Our Web policy. Index to the CBAT/MPC/ICQ pages.


Valid HTML 4.01!